| time (UTC) | temp C | wind direction | speed KPH | gust KPH | rain 1hr cm | rain 24hr cm | rain mn cm | humidity % | barometer mb |
| 20260903124946 | 15 | 127 | 8.0 | 22.5 | 0.43 | 0.53 | 0.51 | 96 | 1018.1 |
| 20260903123945 | 16 | 122 | 6.4 | 12.9 | 0.41 | 0.48 | 0.48 | 96 | 1018.1 |
| 20260903122946 | 16 | 168 | 4.8 | 9.7 | 0.33 | 0.41 | 0.38 | 96 | 1018.5 |
| 20260903122846 | 16 | 102 | 3.2 | 9.7 | 0.30 | 0.38 | 0.38 | 96 | 1018.5 |
| 20260903121846 | 16 | 157 | 8.0 | 16.1 | 0.20 | 0.25 | 0.23 | 96 | 1018.6 |
| 20260903120945 | 16 | 200 | 4.8 | 6.4 | 0.13 | 0.18 | 0.15 | 95 | 1018.9 |
| 20260903114946 | 16 | 168 | 9.7 | 19.3 | 0.08 | 0.10 | 0.10 | 96 | 1018.9 |
| 20260903114044 | 15 | 175 | 4.8 | 12.9 | 0.05 | 0.08 | 0.08 | 96 | 1019.0 |
| 20260903113945 | 15 | 169 | 8.0 | 17.7 | 0.05 | 0.08 | 0.08 | 96 | 1019.0 |
| 20260903112947 | 15 | 184 | 6.4 | 11.3 | 0.08 | 0.08 | 0.08 | 96 | 1019.0 |
| 20260903112045 | 15 | 164 | 6.4 | 11.3 | 0.05 | 0.05 | 0.05 | 96 | 1019.1 |
| 20260903111046 | 15 | 148 | 11.3 | 22.5 | 0.05 | 0.05 | 0.05 | 96 | 1019.0 |
| 20260903110045 | 15 | 147 | 6.4 | 12.9 | 0.03 | 0.03 | 0.03 | 96 | 1019.0 |
| 20260903105143 | 15 | 155 | 8.0 | 16.1 | 0.03 | 0.03 | 0.03 | 96 | 1019.1 |
| 20260903104145 | 15 | 150 | 11.3 | 20.9 | 0.03 | 0.03 | 0.03 | 96 | 1019.1 |
| 20260903102244 | 15 | 180 | 3.2 | 6.4 | 0.00 | 0.00 | 0.00 | 96 | 1019.1 |
| 20260903101245 | 15 | 146 | 6.4 | 11.3 | 0.00 | 0.00 | 0.00 | 95 | 1019.3 |
| 20260903100245 | 15 | 166 | 4.8 | 9.7 | 0.00 | 0.00 | 0.00 | 96 | 1019.2 |
| 20260903095246 | 15 | 176 | 3.2 | 6.4 | 0.00 | 0.00 | 0.00 | 96 | 1019.3 |
| 20260903094344 | 15 | 201 | 4.8 | 12.9 | 0.00 | 0.00 | 0.00 | 96 | 1019.2 |
| 20260903091346 | 15 | 190 | 6.4 | 11.3 | 0.00 | 0.00 | 0.00 | 96 | 1019.3 |
| 20260903091245 | 15 | 205 | 9.7 | 14.5 | 0.00 | 0.00 | 0.00 | 96 | 1019.3 |
| 20260903090245 | 15 | 197 | 4.8 | 11.3 | 0.00 | 0.00 | 0.00 | 96 | 1019.5 |
| 20260903085247 | 15 | 186 | 6.4 | 11.3 | 0.00 | 0.00 | 0.00 | 96 | 1019.4 |
| 20260903084345 | 15 | 148 | 3.2 | 6.4 | 0.00 | 0.00 | 0.00 | 96 | 1019.6 |
| 20260903083346 | 15 | 295 | 0.0 | 4.8 | 0.00 | 0.00 | 0.00 | 96 | 1019.8 |
| 20260903081346 | 14 | 103 | 3.2 | 6.4 | 0.00 | 0.00 | 0.00 | 96 | 1019.6 |
| 20260903080347 | 14 | 247 | 0.0 | 1.6 | 0.00 | 0.00 | 0.00 | 96 | 1019.8 |
| 20260903075345 | 14 | 45 | 1.6 | 1.6 | 0.00 | 0.00 | 0.00 | 96 | 1020.1 |
| 20260903074347 | 14 | 90 | 1.6 | 3.2 | 0.00 | 0.00 | 0.00 | 96 | 1020.2 |
| 20260903074243 | 14 | 90 | 4.8 | 8.0 | 0.00 | 0.00 | 0.00 | 96 | 1020.3 |
| 20260903073247 | 14 | 90 | 4.8 | 6.4 | 0.00 | 0.00 | 0.00 | 96 | 1020.7 |
| 20260903072345 | 14 | 96 | 3.2 | 4.8 | 0.00 | 0.00 | 0.00 | 96 | 1020.9 |
| 20260903072244 | 14 | 112 | 3.2 | 3.2 | 0.00 | 0.00 | 0.00 | 96 | 1020.9 |
| 20260903071246 | 14 | 132 | 1.6 | 6.4 | 0.00 | 0.00 | 0.00 | 96 | 1021.2 |
| 20260903070246 | 14 | 128 | 6.4 | 8.0 | 0.00 | 0.00 | 0.00 | 95 | 1021.0 |
| 20260903070147 | 14 | 99 | 8.0 | 11.3 | 0.00 | 0.00 | 0.00 | 96 | 1021.1 |
| 20260903070046 | 14 | 93 | 8.0 | 9.7 | 0.00 | 0.00 | 0.00 | 96 | 1021.2 |
| 20260903065045 | 14 | 115 | 8.0 | 11.3 | 0.00 | 0.00 | 0.00 | 95 | 1021.2 |
| 20260903064046 | 14 | 129 | 4.8 | 8.0 | 0.00 | 0.00 | 0.00 | 96 | 1021.3 |
| 20260903063045 | 14 | 111 | 6.4 | 8.0 | 0.00 | 0.00 | 0.00 | 96 | 1021.5 |
| 20260903062143 | 14 | 117 | 4.8 | 6.4 | 0.00 | 0.00 | 0.00 | 96 | 1021.3 |
| 20260903061146 | 14 | 135 | 4.8 | 6.4 | 0.00 | 0.00 | 0.00 | 96 | 1021.4 |
| 20260903060245 | 14 | 105 | 4.8 | 6.4 | 0.00 | 0.00 | 0.00 | 95 | 1021.5 |
| 20260903055247 | 14 | 135 | 3.2 | 4.8 | 0.00 | 0.00 | 0.00 | 96 | 1021.8 |
| 20260903053344 | 14 | 135 | 3.2 | 4.8 | 0.00 | 0.00 | 0.00 | 95 | 1021.9 |
| 20260903050446 | 14 | 135 | 1.6 | 3.2 | 0.00 | 0.00 | 0.00 | 95 | 1021.9 |
| 20260903044544 | 14 | 202 | 0.0 | 3.2 | 0.00 | 0.00 | 0.00 | 95 | 1022.1 |
| 20260903043546 | 14 | 135 | 3.2 | 4.8 | 0.00 | 0.00 | 0.00 | 95 | 1022.1 |
| 20260903042644 | 14 | 135 | 0.0 | 1.6 | 0.00 | 0.00 | 0.00 | 95 | 1022.1 |
| 20260903041647 | 14 | 180 | 1.6 | 4.8 | 0.00 | 0.00 | 0.00 | 95 | 1022.2 |
| 20260903040646 | 14 | 135 | 4.8 | 6.4 | 0.00 | 0.00 | 0.00 | 94 | 1022.4 |
| 20260903035728 | 14 | 135 | 3.2 | 6.4 | 0.00 | 0.00 | 0.00 | 95 | 1022.4 |
| 20260903034727 | 14 | 135 | 3.2 | 4.8 | 0.00 | 0.00 | 0.00 | 95 | 1022.4 |
| 20260903033826 | 14 | 195 | 4.8 | 6.4 | 0.00 | 0.00 | 0.00 | 95 | 1022.5 |
| 20260903032828 | 14 | 154 | 9.7 | 16.1 | 0.00 | 0.00 | 0.00 | 95 | 1022.3 |
| 20260903030827 | 14 | 191 | 3.2 | 8.0 | 0.00 | 0.00 | 0.00 | 95 | 1022.9 |
| 20260903025827 | 14 | 149 | 6.4 | 9.7 | 0.00 | 0.00 | 0.00 | 94 | 1022.8 |
| 20260903024828 | 14 | 171 | 6.4 | 8.0 | 0.00 | 0.00 | 0.00 | 93 | 1022.8 |
| 20260903023827 | 13 | 174 | 1.6 | 4.8 | 0.00 | 0.00 | 0.00 | 94 | 1022.9 |
| 20260903022827 | 13 | 150 | 0.0 | 3.2 | 0.00 | 0.00 | 0.00 | 94 | 1022.6 |
| 20260903022728 | 13 | 135 | 0.0 | 1.6 | 0.00 | 0.00 | 0.00 | 93 | 1022.7 |
| 20260903021728 | 13 | 131 | 6.4 | 12.9 | 0.00 | 0.00 | 0.00 | 94 | 1022.6 |
| 20260903020826 | 13 | 180 | 0.0 | 1.6 | 0.00 | 0.00 | 0.00 | 94 | 1022.8 |
| 20260903015829 | 13 | 167 | 1.6 | 6.4 | 0.00 | 0.00 | 0.00 | 94 | 1022.8 |
| 20260903014826 | 13 | 146 | 6.4 | 9.7 | 0.00 | 0.00 | 0.00 | 93 | 1022.8 |
| 20260903013828 | 14 | 166 | 3.2 | 8.0 | 0.00 | 0.00 | 0.00 | 93 | 1022.9 |
| 20260903012827 | 14 | 128 | 4.8 | 8.0 | 0.00 | 0.00 | 0.00 | 92 | 1022.9 |
| 20260903011828 | 14 | 162 | 1.6 | 6.4 | 0.00 | 0.00 | 0.00 | 92 | 1022.7 |
| 20260903010828 | 14 | 156 | 3.2 | 11.3 | 0.00 | 0.00 | 0.00 | 91 | 1022.7 |
| 20260903005827 | 14 | 146 | 4.8 | 8.0 | 0.00 | 0.00 | 0.00 | 92 | 1023.0 |
| 20260903004828 | 13 | 134 | 8.0 | 11.3 | 0.00 | 0.00 | 0.00 | 90 | 1023.1 |
| 20260903004726 | 13 | 142 | 6.4 | 12.9 | 0.00 | 0.00 | 0.00 | 91 | 1023.2 |
| 20260903003728 | 13 | 135 | 4.8 | 9.7 | 0.00 | 0.00 | 0.00 | 90 | 1023.2 |
| 20260903002729 | 13 | 138 | 6.4 | 9.7 | 0.00 | 0.00 | 0.00 | 89 | 1023.3 |
| 20260903001827 | 13 | 180 | 6.4 | 11.3 | 0.00 | 0.00 | 0.00 | 89 | 1023.1 |
| 20260903000827 | 13 | 153 | 6.4 | 9.7 | 0.00 | 0.00 | 0.00 | 89 | 1023.0 |
| 20260902235826 | 13 | 135 | 1.6 | 3.2 | 0.00 | 0.00 | 0.00 | 89 | 1023.0 |
| 20260902234827 | 13 | 156 | 3.2 | 6.4 | 0.00 | 0.00 | 0.00 | 89 | 1022.9 |
| 20260902234728 | 13 | 166 | 0.0 | 4.8 | 0.00 | 0.00 | 0.00 | 88 | 1022.9 |
| 20260902234628 | 13 | 135 | 0.0 | 0.0 | 0.00 | 0.00 | 0.00 | 88 | 1023.0 |
| 20260902233627 | 13 | 135 | 3.2 | 4.8 | 0.00 | 0.00 | 0.00 | 88 | 1023.0 |
| 20260902232627 | 13 | 135 | 3.2 | 4.8 | 0.00 | 0.00 | 0.00 | 88 | 1023.0 |
| 20260902232528 | 13 | 135 | 3.2 | 4.8 | 0.00 | 0.00 | 0.00 | 88 | 1023.0 |
| 20260902231625 | 13 | 157 | 3.2 | 4.8 | 0.00 | 0.00 | 0.00 | 88 | 1023.2 |
| 20260902230629 | 13 | 135 | 6.4 | 9.7 | 0.00 | 0.00 | 0.00 | 88 | 1023.4 |
| 20260902230527 | 13 | 135 | 3.2 | 6.4 | 0.00 | 0.00 | 0.00 | 88 | 1023.5 |
| 20260902225527 | 13 | 152 | 6.4 | 8.0 | 0.00 | 0.00 | 0.00 | 87 | 1023.5 |
| 20260902224527 | 14 | 152 | 6.4 | 8.0 | 0.00 | 0.00 | 0.00 | 85 | 1023.4 |
| 20260902223528 | 14 | 121 | 1.6 | 4.8 | 0.00 | 0.00 | 0.00 | 86 | 1023.7 |
| 20260902221626 | 14 | 124 | 9.7 | 14.5 | 0.00 | 0.00 | 0.00 | 84 | 1023.6 |
| 20260902220628 | 15 | 146 | 8.0 | 16.1 | 0.00 | 0.00 | 0.00 | 83 | 1023.6 |
| 20260902215627 | 15 | 125 | 8.0 | 14.5 | 0.00 | 0.00 | 0.00 | 82 | 1023.8 |
| 20260902214625 | 15 | 148 | 6.4 | 9.7 | 0.00 | 0.00 | 0.00 | 81 | 1023.9 |
| 20260902213626 | 15 | 128 | 4.8 | 9.7 | 0.00 | 0.00 | 0.00 | 80 | 1023.8 |
| 20260902212627 | 15 | 139 | 9.7 | 14.5 | 0.00 | 0.00 | 0.00 | 79 | 1023.8 |
| 20260902211626 | 15 | 129 | 3.2 | 8.0 | 0.00 | 0.00 | 0.00 | 79 | 1023.7 |
| 20260902211529 | 15 | 143 | 4.8 | 11.3 | 0.00 | 0.00 | 0.00 | 79 | 1023.8 |
| 20260902210527 | 16 | 125 | 8.0 | 11.3 | 0.00 | 0.00 | 0.00 | 78 | 1023.9 |
| 20260902205527 | 16 | 144 | 9.7 | 14.5 | 0.00 | 0.00 | 0.00 | 77 | 1023.9 |
| 20260902204529 | 16 | 125 | 8.0 | 11.3 | 0.00 | 0.00 | 0.00 | 77 | 1024.0 |
| 20260902203527 | 16 | 125 | 9.7 | 12.9 | 0.00 | 0.00 | 0.00 | 76 | 1024.1 |
| 20260902202626 | 16 | 126 | 11.3 | 17.7 | 0.00 | 0.00 | 0.00 | 76 | 1024.1 |
| 20260902201628 | 16 | 127 | 8.0 | 17.7 | 0.00 | 0.00 | 0.00 | 75 | 1024.2 |
| 20260902201542 | 16 | 141 | 9.7 | 12.9 | 0.00 | 0.00 | 0.00 | 75 | 1024.2 |
| 20260902200527 | 17 | 129 | 12.9 | 19.3 | 0.00 | 0.00 | 0.00 | 74 | 1024.1 |
| 20260902195528 | 17 | 118 | 9.7 | 14.5 | 0.00 | 0.00 | 0.00 | 73 | 1024.3 |
| 20260902195426 | 17 | 123 | 3.2 | 9.7 | 0.00 | 0.00 | 0.00 | 73 | 1024.4 |
| 20260902194427 | 17 | 121 | 8.0 | 12.9 | 0.00 | 0.00 | 0.00 | 73 | 1024.3 |
| 20260902192526 | 17 | 128 | 11.3 | 17.7 | 0.00 | 0.00 | 0.00 | 72 | 1024.3 |
| 20260902191527 | 17 | 128 | 8.0 | 12.9 | 0.00 | 0.00 | 0.00 | 70 | 1024.2 |
| 20260902190527 | 17 | 135 | 8.0 | 16.1 | 0.00 | 0.00 | 0.00 | 70 | 1024.0 |
| 20260902185527 | 18 | 106 | 8.0 | 12.9 | 0.00 | 0.00 | 0.00 | 69 | 1024.2 |
| 20260902184529 | 18 | 120 | 11.3 | 19.3 | 0.00 | 0.00 | 0.00 | 69 | 1024.0 |
| 20260902183626 | 18 | 115 | 12.9 | 24.1 | 0.00 | 0.00 | 0.00 | 69 | 1024.3 |
| 20260902181726 | 18 | 121 | 9.7 | 19.3 | 0.00 | 0.00 | 0.00 | 68 | 1024.2 |
| 20260902180825 | 18 | 107 | 8.0 | 14.5 | 0.00 | 0.00 | 0.00 | 69 | 1024.3 |
| 20260902174827 | 18 | 107 | 9.7 | 19.3 | 0.00 | 0.00 | 0.00 | 67 | 1024.6 |
| 20260902174728 | 18 | 110 | 11.3 | 24.1 | 0.00 | 0.00 | 0.00 | 66 | 1024.5 |
| 20260902173728 | 18 | 114 | 14.5 | 24.1 | 0.00 | 0.00 | 0.00 | 66 | 1024.7 |
| 20260902173627 | 18 | 115 | 11.3 | 19.3 | 0.00 | 0.00 | 0.00 | 65 | 1024.7 |
| 20260902172726 | 18 | 140 | 8.0 | 16.1 | 0.00 | 0.00 | 0.00 | 64 | 1024.7 |
| 20260902172626 | 18 | 117 | 11.3 | 19.3 | 0.00 | 0.00 | 0.00 | 63 | 1024.8 |
| 20260902171628 | 18 | 118 | 12.9 | 20.9 | 0.00 | 0.00 | 0.00 | 63 | 1024.8 |
| 20260902170726 | 19 | 77 | 3.2 | 11.3 | 0.00 | 0.00 | 0.00 | 64 | 1024.9 |
| 20260902164727 | 18 | 96 | 8.0 | 12.9 | 0.00 | 0.00 | 0.00 | 64 | 1024.8 |
| 20260902164627 | 18 | 105 | 11.3 | 16.1 | 0.00 | 0.00 | 0.00 | 64 | 1024.9 |
| 20260902162629 | 18 | 129 | 9.7 | 14.5 | 0.00 | 0.00 | 0.00 | 65 | 1025.0 |
| 20260902161627 | 18 | 88 | 12.9 | 19.3 | 0.00 | 0.00 | 0.00 | 66 | 1024.8 |
| 20260902155727 | 18 | 97 | 11.3 | 19.3 | 0.00 | 0.00 | 0.00 | 65 | 1024.9 |
| 20260902154825 | 18 | 85 | 14.5 | 22.5 | 0.00 | 0.00 | 0.00 | 64 | 1024.8 |
| 20260902153828 | 18 | 102 | 14.5 | 19.3 | 0.00 | 0.00 | 0.00 | 64 | 1024.8 |
| 20260902152925 | 18 | 97 | 12.9 | 17.7 | 0.00 | 0.00 | 0.00 | 64 | 1024.7 |
| 20260902152826 | 18 | 102 | 11.3 | 22.5 | 0.00 | 0.00 | 0.00 | 65 | 1024.7 |
| 20260902151925 | 18 | 102 | 11.3 | 17.7 | 0.00 | 0.00 | 0.00 | 65 | 1024.8 |
| 20260902145927 | 18 | 76 | 11.3 | 16.1 | 0.00 | 0.00 | 0.00 | 68 | 1025.0 |
| 20260902144927 | 18 | 105 | 6.4 | 17.7 | 0.00 | 0.00 | 0.00 | 69 | 1025.1 |
| 20260902141927 | 18 | 98 | 6.4 | 12.9 | 0.00 | 0.00 | 0.00 | 69 | 1025.1 |
| 20260902140926 | 18 | 118 | 8.0 | 12.9 | 0.00 | 0.00 | 0.00 | 70 | 1025.1 |
| 20260902135925 | 17 | 107 | 9.7 | 17.7 | 0.00 | 0.00 | 0.00 | 72 | 1024.9 |
| 20260902134927 | 17 | 87 | 8.0 | 11.3 | 0.00 | 0.00 | 0.00 | 74 | 1024.8 |
| 20260902134827 | 17 | 84 | 9.7 | 12.9 | 0.00 | 0.00 | 0.00 | 73 | 1024.7 |
| 20260902133829 | 17 | 83 | 8.0 | 11.3 | 0.00 | 0.00 | 0.00 | 75 | 1024.4 |
| 20260902132828 | 16 | 69 | 4.8 | 9.7 | 0.00 | 0.00 | 0.00 | 77 | 1024.5 |
| 20260902131827 | 16 | 90 | 4.8 | 9.7 | 0.00 | 0.00 | 0.00 | 77 | 1024.4 |
| 20260902130827 | 16 | 50 | 8.0 | 12.9 | 0.00 | 0.00 | 0.00 | 78 | 1024.3 |
| 20260902130725 | 16 | 82 | 8.0 | 11.3 | 0.00 | 0.00 | 0.00 | 77 | 1024.3 |
| 20260902125727 | 16 | 67 | 3.2 | 6.4 | 0.00 | 0.00 | 0.00 | 77 | 1024.5 |